カタログに戻る

STARLINK-31481

運用中通信VLEO
NORAD 59541·PAYLOAD·🇺🇸 United States

打ち上げ Apr 18, 2024 から Cape Canaveral Space Force Station

Loading…

次のパス (今後24時間)

TLE

最新Source: CelesTrak SupGP

元期: Sep 14, 2026, 20:41 UTC

1 59541C 24074H   26257.86229167  .00009218  00000+0  33387-3 0  2577
2 59541  43.0022 354.7362 0001507 269.8758 354.3620 15.27573343    19

AllMySatでSTARLINK-31481をリアルタイム追跡

Download on the App Store